Flag for U.S.A. Weather past 2 weeks in Sterling Heights, Michigan, U.S.A.

Now
62 °F

Clear.


Feels Like: 62 °F
Forecast: 62 / 80 °F
Wind: 3 mph from North

Location: Selfridge Air National Guard Base

Current Time: Aug 1, 2014 at 12:24:35 AM

Latest Report: Jul 31, 2014 at 11:58 PM


Visibility: 10 mi

Pressure: 30.04 "Hg

Humidity: 87%

Dew point: 58 °F

Location of Sterling HeightsLocation

Historic Weather in Sterling Heights — Graph

°F

Sterling Heights temperature yesterday

Maximum temperature yesterday: 80 °F (at 4:55 PM)
Minimum temperature yesterday: 55 °F (at 6:58 AM)
Average temperature yesterday: 67 °F

Past Weeks' High & Low Weather Summary

 TemperatureHumidityPressure
High87 °F (Jul 22, 7:55 PM)100% (Jul 20, 12:58 AM)30.25 "Hg (Jul 20, 12:58 AM)
Low52 °F (Jul 18, 6:58 AM)38% (Jul 17, 3:55 PM)29.58 "Hg (Jul 27, 5:03 PM)
Average67 °F73%30.01 "Hg
* Reported Jul 16 10:58 PM — Jul 31 10:55 PM, Sterling Heights, Weather by CustomWeather, © 2014

Note: Actual official high and low records may vary slightly from our data, if they occured in-between our weather recording intervals... More about our weather records

Advertising

Sterling Heights weather history for previous 24 hours

 ConditionsComfort  
Time TempWeatherWind HumidityBarometerVisibility
10:55 PM
Jul 31
65 °FClear.5 mph80%30.05 "Hg10 mi
9:55 PM65 °FPassing clouds.No wind72%30.04 "Hg10 mi
8:55 PM69 °FScattered clouds.7 mph69%30.03 "Hg10 mi
7:55 PM71 °FScattered clouds.7 mph71%30.02 "Hg10 mi
6:55 PM77 °FScattered clouds.7 mph56%30.01 "Hg10 mi
5:55 PM79 °FScattered clouds.9 mph47%30.01 "Hg10 mi
4:55 PM80 °FPassing clouds.9 mph45%30.01 "Hg10 mi
3:55 PM78 °FScattered clouds.8 mph50%30.01 "Hg10 mi
2:55 PM78 °FScattered clouds.17 mph47%30.02 "Hg10 mi
1:55 PM77 °FScattered clouds.15 mph50%30.02 "Hg10 mi
12:55 PM75 °FBroken clouds.8 mph51%30.03 "Hg10 mi
11:55 AM75 °FPassing clouds.10 mph52%30.04 "Hg10 mi
10:55 AM69 °FPassing clouds.6 mph55%30.03 "Hg10 mi
9:58 AM67 °FPassing clouds.8 mph61%30.03 "Hg10 mi
8:58 AM62 °FOvercast.6 mph76%30.03 "Hg10 mi
7:58 AM58 °FSunny.7 mph85%30.02 "Hg10 mi
6:58 AM55 °FClear.5 mph94%30.01 "Hg10 mi
5:58 AM56 °FClear.5 mph90%29.99 "Hg10 mi
4:58 AM58 °FClear.3 mph89%29.98 "Hg10 mi
3:58 AM59 °FClear.6 mph90%29.96 "Hg10 mi
2:58 AM60 °FClear.8 mph89%29.96 "Hg10 mi
1:58 AM61 °FPassing clouds.6 mph91%29.98 "Hg10 mi
1:03 AM59 °FPassing clouds.6 mph100%29.97 "Hg8 mi
12:58 AM59 °FFog.3 mph100%29.98 "Hg6 mi
Weather by CustomWeather, © 2014

See weather overviewHow to use our weather pages